Theta_e
312 313 313 313 313 312 311 310 309 308 308 309 309 309 310 310 310 310 310 310 308 310 310 310 310 311 310 312 314 311 312 314 318 319 318 315 312 316 319 318 316 315 313 312 311 311 312
311 312 312 313 313 312 311 310 309 309 308 308 309 309 309 310 309 309 310 310 311 309 308 309 310 310 311 313 312 310 311 314 317 317 316 313 312 315 316 316 316 312 311 311 310 310 310
311 311 312 312 312 311 310 310 309 308 308 308 308 309 309 306 306 308 308 310 310 308 308 308 308 310 312 312 311 310 311 310 314 315 312 313 312 315 314 315 311 310 311 310 310 311 310
311 310 311 311 312 312 310 310 308 308 308 308 308 308 308 306 306 308 308 309 309 310 310 309 310 310 311 310 310 310 309 311 310 312 310 309 312 313 314 311 311 312 311 312 310 311 309
310 310 310 310 311 311 310 310 307 307 305 306 308 308 308 305 306 307 308 307 308 308 310 310 309 310 311 309 310 310 310 311 310 311 312 311 311 311 311 311 310 312 311 311 310 311 309
309 309 309 310 310 310 310 310 307 307 303 304 304 305 305 305 307 306 306 307 306 307 308 307 308 308 308 309 310 310 309 310 312 312 313 311 310 309 309 310 312 311 313 312 310 309 310
308 309 309 309 309 309 310 310 309 304 302 302 303 304 305 305 307 308 308 310 308 306 305 309 310 308 309 309 309 309 309 310 311 312 312 310 310 311 310 311 312 312 313 313 312 311 310
308 308 308 309 309 309 309 310 309 309 304 301 302 304 305 305 306 306 307 307 307 306 306 306 308 309 309 309 309 309 309 311 312 314 312 311 310 310 311 312 312 312 312 313 312 312 312
308 308 308 308 308 309 308 309 309 310 309 304 303 304 304 304 306 307 306 307 308 307 306 306 308 308 308 309 310 310 311 310 313 315 315 312 310 310 311 311 311 312 313 312 312 312 311
307 307 308 308 308 308 307 308 309 309 309 307 305 304 304 305 307 306 307 305 305 308 309 309 308 309 309 310 311 310 310 312 313 316 310 309 309 310 311 313 313 313 311 314 313 311 309
307 307 307 307 307 308 308 308 308 308 309 307 306 305 305 306 305 307 306 305 305 307 311 309 310 308 310 310 309 311 309 310 314 313 307 310 312 313 313 313 313 312 312 312 312 311 309
307 307 307 307 307 307 308 308 309 308 308 308 305 305 304 307 307 306 305 305 305 305 311 312 312 312 312 311 311 310 312 309 311 312 312 312 311 311 312 311 312 311 311 314 314 310 309
305 308 308 306 306 306 307 307 307 307 307 306 305 305 305 307 307 307 306 305 306 307 309 313 314 311 312 312 312 312 312 312 313 311 311 313 313 312 312 310 311 311 310 305 304 303 307
305 308 308 307 306 303 304 307 307 307 304 305 305 305 307 308 306 305 306 305 311 313 315 311 313 313 313 312 311 312 312 312 310 312 312 308 304 313 312 312 311 313 314 306 306 310 311
306 309 308 307 302 300 302 303 307 307 303 305 306 309 309 310 307 306 305 310 312 312 313 314 314 313 312 312 313 312 312 312 313 310 314 314 311 312 312 312 311 311 313 312 310 311 310
307 309 309 308 303 300 301 302 306 306 305 305 305 308 311 309 306 307 306 311 312 311 311 312 315 315 312 312 312 311 312 312 314 312 311 312 315 314 313 313 311 312 311 308 307 311 315
308 306 309 307 305 301 300 302 304 309 306 304 308 309 312 307 308 306 305 309 311 310 311 313 314 312 311 312 313 311 312 312 313 312 311 311 314 315 313 313 311 310 312 312 311 312 315
308 308 307 307 306 304 299 301 304 306 305 309 309 312 311 308 309 308 305 312 310 312 311 312 312 312 312 312 312 313 315 313 312 312 314 311 313 313 314 312 312 313 314 308 310 314 310
308 308 308 307 306 305 300 300 302 305 306 307 309 307 311 309 307 305 311 312 311 312 312 313 313 312 311 312 313 313 313 312 312 312 313 312 311 309 310 310 310 312 312 313 310 309 311
308 307 307 308 307 306 303 299 301 304 306 306 306 309 310 305 306 309 312 312 312 310 311 311 312 311 312 312 312 314 314 313 312 311 311 310 310 309 306 308 310 312 312 312 310 307 310
308 308 307 307 308 307 305 301 301 301 304 309 305 307 306 309 308 309 310 311 312 312 310 309 311 309 309 313 313 314 313 313 313 311 311 308 310 306 309 310 310 312 313 311 311 311 310
308 308 307 307 307 307 306 305 302 302 305 309 308 307 304 305 307 309 307 309 310 309 309 309 309 308 307 309 310 313 313 312 313 312 311 307 308 305 305 306 306 307 307 311 311 312 311
308 308 307 307 306 307 307 306 305 302 305 307 306 306 303 306 306 306 306 308 309 308 308 307 307 307 308 308 307 307 305 305 306 310 309 307 305 304 308 305 305 302 303 305 311 311 310
306 308 308 307 306 306 307 306 306 303 303 306 305 304 306 308 304 306 307 308 309 308 309 307 306 308 307 305 305 303 303 304 304 304 304 307 306 303 304 304 300 301 302 304 307 309 308
306 307 308 307 307 306 307 306 306 306 302 303 302 304 303 306 302 305 307 307 306 306 306 307 305 304 303 305 303 304 304 304 305 303 304 304 303 304 303 305 302 303 302 304 304 305 304
305 306 307 308 307 307 306 307 306 306 305 304 302 303 302 303 303 302 305 306 305 304 305 305 304 303 303 304 302 303 305 305 307 307 303 305 303 303 303 305 306 304 303 304 303 301 302
305 306 306 308 308 307 306 306 307 306 306 304 304 303 304 303 301 303 304 305 303 302 304 305 305 305 302 302 303 301 301 303 307 307 305 303 303 304 305 306 305 303 303 303 302 300 301
305 305 306 307 308 307 307 306 306 306 306 305 305 303 303 302 302 301 302 304 302 301 303 303 303 303 302 304 302 301 301 300 302 303 303 303 303 303 303 307 305 302 303 302 300 300 300
306 306 306 306 307 308 307 307 306 306 305 304 306 304 301 301 302 300 301 300 300 300 301 302 303 303 302 302 300 299 302 299 299 303 302 305 304 305 304 305 302 301 302 300 299 299 299
Wind_Speed
13 14 14 13 14 12 11 12 11 10 12 14 14 14 15 15 16 20 22 22 9 6 0 4 10 14 13 4 2 1 2 2 7 6 7 4 4 6 4 4 5 4 1 4 5 8 8
13 14 14 14 14 12 12 12 11 10 12 12 14 14 15 15 16 18 17 24 2 3 1 2 6 10 7 7 2 3 3 7 7 8 7 4 6 10 4 5 5 5 6 3 7 6 7
13 13 15 14 14 13 13 12 10 9 10 11 12 15 16 13 13 14 15 22 15 7 1 2 2 7 3 4 3 3 2 5 11 12 3 9 8 5 3 5 6 8 6 6 7 5 4
12 12 14 15 13 13 13 12 10 9 9 10 12 13 13 13 10 12 10 13 20 17 10 6 7 5 4 5 4 4 1 1 3 8 5 14 10 5 4 4 5 5 5 5 3 4 3
11 12 13 14 13 13 12 13 10 9 9 10 13 13 13 16 11 6 15 17 13 16 11 10 10 3 4 3 2 3 2 3 5 3 8 15 6 4 4 6 4 1 5 5 2 1 2
11 11 12 14 14 13 11 12 11 10 9 11 11 10 12 16 13 5 7 8 15 11 9 11 8 4 3 3 2 2 4 1 6 4 7 3 1 4 3 4 6 4 6 5 6 5 3
11 11 12 13 14 13 12 12 12 11 10 10 10 12 14 16 16 12 6 2 4 5 10 5 4 4 2 3 3 3 3 3 5 4 4 2 6 6 6 5 6 7 6 8 3 2 3
11 11 11 12 13 13 13 13 12 12 11 11 12 12 11 15 9 11 9 5 2 5 4 15 11 4 4 4 4 5 5 3 6 10 3 5 4 4 7 7 4 3 10 4 3 3 2
12 12 12 12 13 14 14 15 13 12 12 10 10 13 14 14 5 6 11 7 4 6 4 5 4 4 4 5 3 6 3 6 11 7 5 5 3 2 4 5 3 3 8 6 6 4 1
11 12 12 12 13 14 14 15 15 14 13 11 11 12 13 13 1 4 3 3 3 6 3 7 6 3 3 1 4 3 3 3 5 9 5 4 1 2 5 4 2 5 2 7 11 4 4
11 11 13 13 13 14 14 15 16 15 15 12 10 10 10 7 5 3 3 2 2 1 4 9 4 6 4 2 6 6 7 2 6 3 6 4 2 5 7 1 1 4 5 7 4 3 5
12 12 13 14 14 15 15 16 16 16 16 14 9 9 9 1 2 2 0 2 3 5 6 5 5 2 4 7 1 2 4 5 6 7 9 3 2 4 2 4 1 6 7 8 5 4 3
13 12 13 15 15 15 15 15 16 17 16 14 8 7 6 2 1 2 1 3 4 5 1 6 6 6 9 7 5 5 9 5 2 5 4 6 6 4 4 6 8 7 6 3 4 3 5
13 12 13 14 15 16 16 16 16 16 15 10 7 8 3 3 4 2 2 3 9 4 4 1 2 6 6 7 4 2 1 5 7 6 3 4 4 5 7 2 5 3 5 5 6 4 4
13 13 13 15 16 17 17 17 17 16 12 8 8 4 4 3 2 4 3 6 5 3 3 1 2 1 3 2 2 3 5 3 2 3 4 5 2 2 4 3 2 2 1 3 6 4 4
13 13 14 15 17 18 18 19 18 16 10 5 7 5 3 2 5 4 4 5 4 2 1 5 1 3 1 2 3 2 3 2 3 1 1 4 5 1 2 2 3 2 3 3 3 3 2
12 13 14 16 18 19 20 21 20 16 6 2 2 3 1 1 3 4 4 2 2 2 1 1 3 4 3 1 3 2 2 4 3 2 4 3 4 2 2 1 4 2 1 2 4 4 4
10 12 13 16 19 20 21 22 19 13 6 3 2 2 2 1 4 2 2 2 3 2 1 0 1 4 2 3 4 4 3 2 5 4 2 3 4 3 1 1 1 1 2 4 4 3 1
8 11 13 15 17 20 21 22 19 10 14 3 1 2 2 2 3 2 2 2 2 2 2 2 2 2 3 2 3 3 3 1 5 3 1 2 2 3 6 5 4 2 3 2 4 3 3
7 9 11 14 16 18 21 21 19 13 10 4 2 3 3 3 1 5 3 2 3 1 2 1 1 2 1 2 2 4 2 1 2 2 2 0 3 4 6 4 4 4 4 4 5 3 3
7 8 10 11 14 16 19 21 20 17 10 2 2 2 3 2 4 2 2 1 2 2 0 0 1 3 2 2 2 3 3 2 1 1 2 3 3 3 2 3 2 1 4 7 6 4 5
7 7 8 10 12 14 16 19 21 19 8 3 2 2 3 1 2 3 3 1 2 1 3 0 3 4 5 4 1 2 4 2 2 1 0 2 1 2 1 1 1 2 5 6 7 5 5
9 7 6 9 11 12 14 17 20 19 8 4 3 2 3 2 1 2 2 1 2 5 3 3 2 3 4 2 2 2 5 4 4 5 2 2 4 2 2 1 2 6 9 10 6 5 7
13 9 7 7 10 11 12 14 16 17 13 4 4 1 3 2 2 2 1 2 2 2 4 3 5 3 2 2 3 4 7 7 8 7 3 3 3 2 2 3 1 4 2 4 7 6 6
16 11 9 7 7 10 10 11 13 15 11 7 5 2 2 1 1 2 3 4 3 3 3 3 3 2 1 2 3 3 4 3 4 5 6 3 3 2 3 3 5 2 4 6 7 8 5
16 14 9 9 6 8 9 9 10 11 11 5 10 5 2 4 2 5 1 3 3 2 2 1 2 4 4 2 2 3 3 3 2 2 5 3 4 4 2 1 5 4 2 3 3 4 6
15 16 13 10 8 6 8 9 8 9 10 5 4 8 2 2 2 3 1 2 1 2 3 2 1 1 3 2 2 2 2 4 2 4 3 2 2 3 1 2 7 3 3 1 3 3 4
15 14 15 11 10 6 8 10 7 7 8 6 2 7 2 2 2 3 3 1 2 2 4 3 3 2 2 1 2 3 2 4 2 5 6 6 5 4 2 2 6 4 4 5 3 3 5
19 15 14 16 12 9 6 6 6 5 6 5 1 4 3 3 2 2 2 2 2 1 2 1 3 3 4 2 1 2 0 1 3 2 2 3 6 5 8 5 3 4 3 2 4 4 3
Wind_Direction
3 4 2 358 358 359 355 350 353 346 353 349 352 353 349 349 353 350 346 343 332 333 27 127 165 165 160 216 104 113 185 183 177 181 245 230 165 177 169 175 123 94 81 49 8 19 55
2 2 360 358 3 0 359 350 353 351 357 359 357 354 348 347 353 356 5 11 337 344 123 173 156 171 168 178 38 8 133 127 165 179 264 221 216 199 154 162 143 131 97 64 31 31 43
357 359 359 357 0 1 0 351 355 355 1 355 354 350 343 350 1 10 30 25 41 45 355 185 128 176 51 105 37 315 97 119 158 185 309 255 309 221 152 120 150 140 93 53 15 7 56
353 355 358 359 356 3 356 345 353 351 356 354 346 347 349 356 352 19 24 25 58 53 69 93 96 101 60 65 56 360 53 234 142 197 306 306 284 265 200 153 60 90 74 106 314 6 354
350 353 355 357 357 360 353 343 350 355 355 351 349 354 358 5 352 48 72 63 58 61 63 94 59 74 94 82 29 42 21 297 144 146 261 287 279 165 67 98 47 355 151 113 117 34 116
350 353 353 355 356 358 347 340 351 359 348 353 356 348 359 8 14 339 252 277 52 100 34 37 26 76 17 74 48 76 30 122 102 115 284 207 143 90 77 99 180 167 109 94 143 215 106
346 348 350 351 353 357 343 339 352 347 344 344 347 341 349 357 17 28 351 102 62 14 37 19 86 93 35 23 76 50 26 92 90 108 217 279 96 170 194 157 157 148 119 111 101 171 121
347 344 346 346 345 351 343 340 345 339 344 345 338 333 340 348 6 23 64 77 51 137 56 13 29 29 34 3 99 94 142 86 146 163 240 41 157 201 193 210 194 142 118 83 70 152 127
345 343 342 343 343 346 340 339 343 338 332 332 335 331 339 343 357 19 73 104 134 125 78 2 356 345 318 346 74 143 207 134 136 139 228 124 210 180 140 176 160 127 146 164 147 139 346
343 342 336 338 340 341 340 339 339 339 325 318 318 327 338 336 36 358 69 48 166 178 79 10 349 27 326 359 38 177 161 142 159 180 137 117 206 141 111 98 99 95 256 132 131 104 167
345 342 338 339 338 336 336 337 338 338 330 317 312 320 341 345 337 51 141 35 109 174 61 334 349 304 263 92 170 167 156 323 183 216 105 268 53 107 70 327 327 144 137 127 127 100 97
345 346 342 340 339 336 337 336 337 338 333 319 308 315 338 306 289 178 228 104 145 44 30 5 305 46 71 55 89 300 176 208 116 84 73 74 7 62 89 33 344 143 91 50 55 69 48
345 345 346 344 344 341 337 336 338 337 334 321 305 311 310 283 232 278 19 107 47 64 315 346 29 70 79 70 64 100 79 58 137 84 31 23 31 357 31 57 2 50 59 31 24 16 206
345 346 346 346 349 346 340 339 339 339 344 341 313 308 298 266 276 216 142 59 69 342 59 207 177 146 120 164 183 298 171 66 24 84 89 109 354 2 332 68 170 74 137 149 164 169 216
349 350 348 349 352 352 346 341 339 336 342 331 320 318 271 243 198 146 82 50 140 167 114 120 349 89 168 181 154 80 80 101 73 35 122 132 2 305 2 15 75 181 37 169 108 45 79
350 353 351 353 355 357 352 346 340 332 331 317 333 311 248 254 172 139 74 106 110 110 133 185 182 212 86 109 182 144 56 341 140 87 99 162 98 1 282 350 33 118 155 65 3 125 190
347 351 351 355 357 359 359 355 349 342 354 348 10 13 198 209 165 56 95 93 123 173 313 51 28 108 110 73 295 88 22 346 6 44 35 130 87 307 54 293 186 93 16 59 118 127 154
338 349 351 354 358 360 2 4 2 15 27 35 30 23 304 184 51 66 64 89 320 139 221 335 24 63 95 21 37 70 123 352 3 8 30 31 113 118 221 311 329 187 162 143 119 219 181
326 344 350 353 356 1 3 6 9 17 18 354 24 240 195 294 99 358 207 98 91 59 63 343 112 62 40 96 101 101 90 48 12 44 182 3 81 88 350 348 342 228 209 126 117 77 200
310 335 347 353 354 0 3 7 5 2 351 358 67 22 332 35 167 128 130 136 116 205 102 4 3 5 74 73 72 128 110 45 27 106 258 217 101 151 182 198 139 182 198 174 125 116 187
290 321 335 348 353 359 4 6 7 3 349 13 58 246 194 330 338 44 72 168 134 126 345 196 44 51 34 120 107 111 115 156 243 182 318 93 119 79 18 61 65 120 182 187 181 203 157
268 301 325 340 352 359 2 7 8 6 1 64 89 60 356 267 345 22 351 346 139 64 62 39 106 53 51 95 128 146 135 163 188 234 102 29 152 106 11 20 76 264 250 211 212 229 261
261 268 309 332 343 351 1 8 12 14 20 53 23 65 100 285 326 74 251 131 105 109 355 50 27 95 69 106 78 62 92 81 108 143 145 101 128 99 215 313 338 293 218 195 194 190 169
249 258 275 313 333 342 356 7 15 20 29 32 29 85 78 307 104 150 133 68 102 38 146 40 35 83 222 6 24 43 50 65 59 32 50 117 96 95 185 26 2 259 65 179 171 188 176
241 247 253 278 315 334 345 359 11 20 27 42 18 61 101 332 325 77 119 114 89 31 51 80 22 300 87 48 73 50 358 21 25 30 15 52 117 102 128 210 279 221 223 154 162 236 191
234 238 252 256 281 317 331 345 1 14 23 38 28 27 99 115 301 307 141 150 161 149 42 51 342 353 67 111 93 149 199 199 211 348 350 24 74 119 149 174 229 239 214 194 118 284 185
236 232 239 249 256 292 317 333 340 357 14 18 39 15 76 106 290 28 160 199 119 118 124 140 203 78 53 89 128 177 242 142 157 173 162 57 15 166 182 260 286 256 155 77 141 243 122
230 232 235 246 247 256 303 310 311 334 357 10 48 27 41 125 307 19 13 339 354 96 148 198 75 327 47 130 151 228 152 221 164 173 173 169 148 197 141 217 290 148 90 170 191 37 110
224 230 234 240 249 244 261 289 299 310 344 356 287 9 348 125 198 24 51 75 77 93 130 160 184 169 192 110 201 114 240 87 178 240 173 206 183 181 184 215 229 185 150 132 153 134 122